Satellite-Ground Cal/Val Region Overpasses Predictions

Prediction of Satellite NPP Overpassing Cal/Val Region: PacNW

Region Location: (Latitude: 10.00, Longitude: 139.50) to (Latitude: 22.70, Longitude: 165.60).

Table of predicted overpasses for the next 14.0 days since TLE Epoch: 1/14/2023
Interval Starting Time Starting Location Ending Time Ending Location
1 01/14/2023 03:37:51 ( 10.03, 145.60) 01/14/2023 03:41:26 ( 22.65, 142.59)
2 01/14/2023 14:31:22 ( 11.67, 165.59) 01/14/2023 14:31:50 ( 10.03, 165.21)
3 01/14/2023 16:09:45 ( 22.64, 142.85) 01/14/2023 16:13:20 ( 10.02, 139.84)
4 01/15/2023 03:18:50 ( 10.01, 150.36) 01/15/2023 03:22:26 ( 22.69, 147.34)
5 01/15/2023 15:50:43 ( 22.67, 147.61) 01/15/2023 15:54:18 ( 10.05, 144.60)
6 01/16/2023 02:59:49 ( 10.05, 155.11) 01/16/2023 03:03:24 ( 22.67, 152.10)
7 01/16/2023 15:31:42 ( 22.69, 152.37) 01/16/2023 15:35:18 ( 10.01, 149.35)
8 01/17/2023 02:40:48 ( 10.03, 159.87) 01/17/2023 02:44:23 ( 22.65, 156.87)
9 01/17/2023 15:12:42 ( 22.65, 157.12) 01/17/2023 15:16:17 ( 10.03, 154.11)
10 01/18/2023 02:21:46 ( 10.01, 164.64) 01/18/2023 02:25:22 ( 22.69, 161.61)
11 01/18/2023 14:53:40 ( 22.66, 161.88) 01/18/2023 14:57:15 ( 10.04, 158.87)
12 01/19/2023 03:44:16 ( 10.06, 144.01) 01/19/2023 03:47:51 ( 22.68, 141.00)
13 01/19/2023 14:35:52 ( 18.40, 165.59) 01/19/2023 14:38:15 ( 10.00, 163.62)
14 01/19/2023 16:16:09 ( 22.68, 141.27) 01/19/2023 16:18:12 ( 15.46, 139.51)
15 01/20/2023 03:25:14 ( 10.04, 148.77) 01/20/2023 03:28:49 ( 22.66, 145.76)
16 01/20/2023 15:57:07 ( 22.69, 146.03) 01/20/2023 16:00:43 ( 10.01, 143.01)
17 01/21/2023 03:06:13 ( 10.03, 153.53) 01/21/2023 03:09:48 ( 22.65, 150.52)
18 01/21/2023 15:38:07 ( 22.64, 150.77) 01/21/2023 15:41:42 ( 10.03, 147.77)
19 01/22/2023 02:47:11 ( 10.02, 158.29) 01/22/2023 02:50:47 ( 22.70, 155.27)
20 01/22/2023 15:19:05 ( 22.66, 155.54) 01/22/2023 15:22:40 ( 10.04, 152.53)
21 01/23/2023 02:28:10 ( 10.01, 163.05) 01/23/2023 02:31:46 ( 22.69, 160.03)
22 01/23/2023 15:00:04 ( 22.67, 160.30) 01/23/2023 15:03:39 ( 10.05, 157.29)
23 01/24/2023 02:11:50 ( 19.46, 165.59) 01/24/2023 02:12:45 ( 22.68, 164.79)
24 01/24/2023 03:50:39 ( 10.00, 142.44) 01/24/2023 03:54:09 ( 22.33, 139.50)
25 01/24/2023 14:41:02 ( 22.67, 165.06) 01/24/2023 14:44:37 ( 10.06, 162.05)
26 01/24/2023 16:22:32 ( 22.67, 139.68) 01/24/2023 16:22:44 ( 21.97, 139.50)
27 01/25/2023 03:31:38 ( 10.06, 147.18) 01/25/2023 03:35:13 ( 22.68, 144.17)
28 01/25/2023 16:03:31 ( 22.68, 144.44) 01/25/2023 16:07:06 ( 10.06, 141.43)
29 01/26/2023 03:12:37 ( 10.05, 151.94) 01/26/2023 03:16:12 ( 22.67, 148.93)
30 01/26/2023 15:44:29 ( 22.68, 149.20) 01/26/2023 15:48:05 ( 10.00, 146.18)
31 01/27/2023 02:53:35 ( 10.05, 156.70) 01/27/2023 02:57:10 ( 22.67, 153.69)
